Martinsburg, PA

8:44 AM EST on February 07, 2016 (GMT -0500)
Altoona-Blair County

Weather History for KAOO - December, 2012

Change the Weather History Date:

Wednesday, December 5, 2012

  Actual Average Record
Temperature  
Mean Temperature 39 °F 34 °F  
Max Temperature 48 °F 41 °F 73 °F (2001)
Min Temperature 28 °F 27 °F 13 °F (1966)
Degree Days  
Heating Degree Days 26 31  
Month to date heating degree days 152  
Since 1 July heating degree days 1462  
Cooling Degree Days 0 0  
Month to date cooling degree days 0  
Year to date cooling degree days 522  
Moisture  
Dew Point 29 °F    
Average Humidity 67    
Maximum Humidity 80    
Minimum Humidity 58    
Precipitation  
Precipitation 0.02 in 0.09 in 0.94 in (1994)
Month to date precipitation 0.46  
Year to date precipitation 30.67  
Sea Level Pressure  
Sea Level Pressure 30.21 in    
Wind  
Wind Speed 11 mph (WNW)    
Max Wind Speed 17 mph    
Max Gust Speed 25 mph    
Visibility 10 miles    
Events      
T = Trace of Precipitation, MM = Missing Value Source: NWS Daily Summary

Daily Weather History Graph

Daily Weather History Graph

Search for Another Location

Airport or City:

Trip Planner

Search our weather history database for the weather conditions in past years. The results will help you decide how hot, cold, wet, or windy it might be!

Date:

Astronomy

Dec. 05, 2012 Rise Set
Actual Time 7:21 AM EST 4:47 PM EST
Civil Twilight 6:50 AM EST 5:17 PM EST
Nautical Twilight 6:16 AM EST 5:51 PM EST
Astronomical Twilight 5:43 AM EST 6:24 PM EST
Moon 11:35 PM EST (12/5) 11:43 AM EST (12/5)
Length of Visible Light 10h 26m
Length of Day
9h 25m
Waning Gibbous, 60% of the Moon is Illuminated
Dec 5
Waning Gibbous
Dec 6
Last Quarter
Dec 13
New
Dec 20
First Quarter
Dec 28
Full

Hourly Weather History & Observations

Time (EST) Temp. Windchill Dew Point Humidity Pressure Visibility Wind Dir Wind Speed Gust Speed Precip Events Conditions
12:53 AM 48.9 °F - 43.0 °F 80% 30.05 in 10.0 mi NW 11.5 mph - 0.01 in   Overcast
1:53 AM 46.9 °F - 39.9 °F 77% 30.08 in 10.0 mi WNW 10.4 mph - N/A   Overcast
2:53 AM 46.0 °F 40.6 °F 37.9 °F 73% 30.09 in 10.0 mi WNW 11.5 mph - N/A   Partly Cloudy
3:53 AM 43.0 °F 36.8 °F 36.0 °F 76% 30.10 in 10.0 mi WNW 11.5 mph - N/A   Clear
4:53 AM 42.1 °F 37.7 °F 34.0 °F 73% 30.12 in 10.0 mi West 6.9 mph - N/A   Clear
5:53 AM 39.9 °F 34.5 °F 34.0 °F 79% 30.14 in 10.0 mi West 8.1 mph - N/A   Clear
6:53 AM 39.9 °F 35.8 °F 34.0 °F 79% 30.16 in 10.0 mi WSW 5.8 mph - N/A   Partly Cloudy
7:53 AM 41.0 °F 35.8 °F 33.1 °F 73% 30.17 in 10.0 mi West 8.1 mph - N/A   Partly Cloudy
9:50 AM 44.6 °F 38.8 °F 33.8 °F 66% 30.17 in 10.0 mi West 11.5 mph - N/A   Mostly Cloudy
9:53 AM 44.1 °F 37.4 °F 34.0 °F 68% 30.18 in 10.0 mi West 13.8 mph - N/A   Mostly Cloudy
10:34 AM 42.8 °F 36.2 °F 30.2 °F 61% 30.18 in 10.0 mi WNW 12.7 mph - N/A   Scattered Clouds
10:53 AM 44.1 °F 36.5 °F 32.0 °F 63% 30.19 in 10.0 mi WNW 17.3 mph 23.0 mph N/A   Clear
11:53 AM 44.1 °F 37.4 °F 30.0 °F 58% 30.19 in 10.0 mi WNW 13.8 mph - 0.01 in   Clear
12:53 PM 43.0 °F 36.8 °F 30.0 °F 60% 30.19 in 10.0 mi WNW 11.5 mph 25.3 mph N/A   Mostly Cloudy
1:53 PM 42.1 °F 34.5 °F 28.0 °F 58% 30.19 in 10.0 mi WNW 15.0 mph 25.3 mph N/A   Overcast
2:53 PM 39.9 °F 33.4 °F 28.0 °F 63% 30.21 in 10.0 mi NW 10.4 mph 18.4 mph N/A   Overcast
3:53 PM 39.0 °F 31.8 °F 28.0 °F 65% 30.24 in 10.0 mi NNW 11.5 mph - N/A   Overcast
4:53 PM 36.0 °F 27.1 °F 23.0 °F 59% 30.28 in 10.0 mi NW 13.8 mph 24.2 mph N/A   Overcast
5:53 PM 35.1 °F 27.9 °F 21.9 °F 59% 30.31 in 10.0 mi NW 9.2 mph - N/A   Overcast
6:53 PM 33.1 °F 24.9 °F 19.9 °F 59% 30.32 in 10.0 mi NW 10.4 mph - N/A   Mostly Cloudy
7:53 PM 32.0 °F 24.8 °F 21.0 °F 64% 30.32 in 10.0 mi NNW 8.1 mph - N/A   Overcast
8:53 PM 33.1 °F 26.1 °F 21.9 °F 64% 30.32 in 10.0 mi NW 8.1 mph - N/A   Overcast
9:02 PM 33.8 °F 27.0 °F 21.2 °F 60% 30.28 in 10.0 mi NW 8.1 mph - N/A   Overcast
9:53 PM 32.0 °F 24.8 °F 21.0 °F 64% 30.32 in 10.0 mi NW 8.1 mph - N/A   Overcast
10:50 PM 30.2 °F 23.4 °F 19.4 °F 64% 30.29 in 10.0 mi NNW 6.9 mph - N/A   Scattered Clouds
10:53 PM 30.9 °F 24.3 °F 19.9 °F 64% 30.33 in 10.0 mi NNW 6.9 mph - N/A   Partly Cloudy
11:53 PM 28.9 °F 21.9 °F 19.0 °F 67% 30.34 in 10.0 mi NW 6.9 mph - N/A   Clear